Tracking 35280 objects as of 6-Sep-2026
HD Live streaming from Space Station
objects crossing your sky now

STARLINK-6191

Track STARLINK-6191 now!
10-day predictions
STARLINK-6191 is classified as:


NORAD ID: 56378
Int'l Code: 2023-061E
Launch date: May 4, 2023
Source: United States (US)
Launch site: AIR FORCE EASTERN TEST RANGE (AFETR)
Your satellite tracking list
Your tracking list is empty




NASA's NSSDC Master Catalog

Two Line Element Set (TLE):
1 56378U 23061E   26249.49119086 -.00000012  00000-0  91029-5 0  9992
2 56378  43.0023 256.5935 0001391 262.2685  97.8008 15.27575830184405
Source of the keplerian elements: AFSPC